Weather History for Mount Carmel, IL

Change the Weather History Date:

Tuesday, November 12, 2013

  Actual Average (KLWV) Record (KLWV)
Temperature  
Mean Temperature 32 °F 48 °F  
Max Temperature 39 °F 58 °F 76 °F (2010)
Min Temperature 23 °F 38 °F 23 °F (2013)
Degree Days  
Heating Degree Days 32 17  
Month to date heating degree days 179  
Since 1 July heating degree days 476  
Cooling Degree Days 0 0  
Month to date cooling degree days 0  
Year to date cooling degree days 1386  
Moisture  
Dew Point 26 °F    
Average Humidity 77    
Maximum Humidity 93    
Minimum Humidity 56    
Precipitation  
Precipitation 0.00 in 0.14 in 1.81 in (1992)
Month to date precipitation 1.44  
Year to date precipitation 37.96  
Sea Level Pressure  
Sea Level Pressure 30.62 in    
Wind  
Wind Speed 12 mph (NNW)    
Max Wind Speed 16 mph    
Max Gust Speed 25 mph    
Visibility 10 miles    
Events Snow    
T = Trace of Precipitation, MM = Missing Value Source: NWS Daily Summary

Daily Weather History Graph

Daily Weather History Graph

Search for Another Location

Airport:

Trip Planner

Search our weather history database for the weather conditions in past years. The results will help you decide how hot, cold, wet, or windy it might be!

Date:

Astronomy

Nov. 12, 2013 Rise Set
Actual Time 6:29 AM CST 4:39 PM CST
Civil Twilight 6:01 AM CST 5:08 PM CST
Nautical Twilight 5:29 AM CST 5:39 PM CST
Astronomical Twilight 4:58 AM CST 6:11 PM CST
Moon 1:51 PM CST (11/12) 1:22 AM CST (11/12)
Length of Visible Light 11h 06m
Length of Day
10h 09m
Waxing Gibbous, 76% of the Moon is Illuminated
Nov 12
Waxing Gibbous
Nov 17
Full
Nov 25
Last Quarter
Dec 2
New
Dec 9
First Quarter

Hourly Weather History & Observations

Time (CST) Temp. Windchill Dew Point Humidity Pressure Visibility Wind Dir Wind Speed Gust Speed Precip Events Conditions
12:15 AM 35.6 °F 25.9 °F 33.8 °F 93% 30.39 in 10.0 mi North 16.1 mph 24.2 mph N/A   Overcast
12:55 AM 35.6 °F 26.6 °F 32.0 °F 87% 30.41 in 10.0 mi North 13.8 mph 21.9 mph N/A   Overcast
1:15 AM 35.6 °F 26.6 °F 32.0 °F 87% 30.42 in 7.0 mi North 13.8 mph 20.7 mph N/A Snow Light Snow
1:35 AM 35.6 °F 25.9 °F 32.0 °F 87% 30.43 in 10.0 mi North 16.1 mph 19.6 mph N/A   Overcast
1:55 AM 33.8 °F 24.8 °F 32.0 °F 93% 30.44 in 7.0 mi North 12.7 mph 25.3 mph N/A Snow Light Snow
2:15 AM 33.8 °F 24.8 °F 32.0 °F 93% 30.45 in 7.0 mi NNW 12.7 mph 18.4 mph N/A Snow Light Snow
2:35 AM 33.8 °F 23.9 °F 32.0 °F 93% 30.45 in 10.0 mi North 15.0 mph 21.9 mph N/A   Overcast
2:55 AM 33.8 °F 23.9 °F 30.2 °F 87% 30.47 in 10.0 mi NNW 15.0 mph - N/A   Overcast
3:15 AM 33.8 °F 23.5 °F 30.2 °F 87% 30.47 in 10.0 mi North 16.1 mph 24.2 mph N/A   Overcast
3:35 AM 32.0 °F 22.1 °F 28.4 °F 87% 30.48 in 10.0 mi North 13.8 mph 24.2 mph N/A   Overcast
3:55 AM 32.0 °F 22.5 °F 28.4 °F 87% 30.49 in 10.0 mi North 12.7 mph - N/A   Mostly Cloudy
4:15 AM 32.0 °F 22.5 °F 28.4 °F 87% 30.50 in 10.0 mi North 12.7 mph - N/A   Scattered Clouds
4:35 AM 32.0 °F 23.6 °F 28.4 °F 87% 30.52 in 10.0 mi North 10.4 mph - N/A   Clear
4:55 AM 32.0 °F 23.6 °F 28.4 °F 87% 30.53 in 10.0 mi North 10.4 mph - N/A   Clear
5:15 AM 32.0 °F 23.0 °F 26.6 °F 80% 30.54 in 10.0 mi NNW 11.5 mph - N/A   Clear
5:35 AM 32.0 °F 23.0 °F 26.6 °F 80% 30.55 in 10.0 mi NNW 11.5 mph - N/A   Clear
5:55 AM 30.2 °F 20.8 °F 26.6 °F 86% 30.57 in 10.0 mi NNW 11.5 mph - N/A   Clear
6:15 AM 30.2 °F 21.3 °F 26.6 °F 86% 30.58 in 10.0 mi NNW 10.4 mph - N/A   Clear
6:35 AM 30.2 °F 20.2 °F 24.8 °F 80% 30.60 in 10.0 mi North 12.7 mph - N/A   Clear
6:55 AM 30.2 °F 19.3 °F 24.8 °F 80% 30.61 in 10.0 mi NNW 15.0 mph - N/A   Clear
7:15 AM 30.2 °F 20.8 °F 24.8 °F 80% 30.62 in 10.0 mi NNW 11.5 mph - N/A   Clear
7:35 AM 30.2 °F 20.2 °F 24.8 °F 80% 30.64 in 10.0 mi North 12.7 mph - N/A   Clear
7:55 AM 30.2 °F 20.2 °F 24.8 °F 80% 30.64 in 10.0 mi NNW 12.7 mph 17.3 mph N/A   Clear
8:15 AM 32.0 °F 22.1 °F 26.6 °F 80% 30.66 in 10.0 mi NNW 13.8 mph 17.3 mph N/A   Clear
8:35 AM 32.0 °F 21.6 °F 26.6 °F 80% 30.66 in 10.0 mi NNW 15.0 mph - N/A   Clear
8:55 AM 32.0 °F 23.0 °F 26.6 °F 80% 30.66 in 10.0 mi NNW 11.5 mph - N/A   Clear
9:15 AM 32.0 °F 23.0 °F 26.6 °F 80% 30.66 in 10.0 mi NNW 11.5 mph - N/A   Clear
9:35 AM 33.8 °F 25.8 °F 26.6 °F 75% 30.66 in 10.0 mi NNW 10.4 mph - N/A   Clear
9:55 AM 33.8 °F 26.4 °F 26.6 °F 75% 30.67 in 10.0 mi NW 9.2 mph - N/A   Clear
10:15 AM 35.6 °F 28.0 °F 28.4 °F 75% 30.67 in 10.0 mi NW 10.4 mph - N/A   Clear
10:35 AM 35.6 °F 26.6 °F 28.4 °F 75% 30.67 in 10.0 mi NNW 13.8 mph - N/A   Clear
10:55 AM 35.6 °F 28.0 °F 28.4 °F 75% 30.67 in 10.0 mi NW 10.4 mph - N/A   Clear
11:15 AM 37.4 °F 30.3 °F 28.4 °F 70% 30.67 in 10.0 mi NNW 10.4 mph 17.3 mph N/A   Scattered Clouds
11:35 AM 37.4 °F 30.3 °F 26.6 °F 65% 30.66 in 10.0 mi North 10.4 mph 16.1 mph N/A   Scattered Clouds
11:55 AM 37.4 °F 29.3 °F 26.6 °F 65% 30.65 in 10.0 mi NNW 12.7 mph 18.4 mph N/A   Scattered Clouds
12:15 PM 37.4 °F 29.3 °F 26.6 °F 65% 30.65 in 10.0 mi NNW 12.7 mph - N/A   Scattered Clouds
12:35 PM 37.4 °F 29.3 °F 26.6 °F 65% 30.65 in 10.0 mi NW 12.7 mph 18.4 mph N/A   Mostly Cloudy
12:55 PM 37.4 °F 30.8 °F 23.0 °F 56% 30.65 in 10.0 mi NNW 9.2 mph 17.3 mph N/A   Mostly Cloudy
1:15 PM 37.4 °F 28.9 °F 24.8 °F 60% 30.65 in 10.0 mi North 13.8 mph 17.3 mph N/A   Scattered Clouds
1:35 PM 37.4 °F 29.8 °F 26.6 °F 65% 30.66 in 10.0 mi NNW 11.5 mph - N/A   Scattered Clouds
1:55 PM 37.4 °F 30.3 °F 24.8 °F 60% 30.66 in 10.0 mi North 10.4 mph 17.3 mph N/A   Mostly Cloudy
2:15 PM 39.2 °F 31.6 °F 26.6 °F 61% 30.66 in 10.0 mi NNW 12.7 mph - N/A   Overcast
2:35 PM 37.4 °F 29.8 °F 26.6 °F 65% 30.66 in 10.0 mi NNW 11.5 mph - N/A   Scattered Clouds
2:55 PM 37.4 °F 28.2 °F 24.8 °F 60% 30.66 in 10.0 mi NNW 16.1 mph - N/A   Mostly Cloudy
3:15 PM 37.4 °F 29.8 °F 24.8 °F 60% 30.66 in 10.0 mi North 11.5 mph - N/A   Overcast
3:35 PM 35.6 °F 28.0 °F 24.8 °F 65% 30.67 in 10.0 mi North 10.4 mph 16.1 mph N/A   Mostly Cloudy
3:55 PM 35.6 °F 27.5 °F 26.6 °F 70% 30.67 in 10.0 mi NNW 11.5 mph - N/A   Mostly Cloudy
4:15 PM 35.6 °F 29.2 °F 23.0 °F 60% 30.67 in 10.0 mi NNW 8.1 mph - N/A   Scattered Clouds
4:35 PM 33.8 °F 24.8 °F 24.8 °F 70% 30.67 in 10.0 mi North 12.7 mph - N/A   Clear
4:55 PM 33.8 °F 27.0 °F 26.6 °F 75% 30.68 in 10.0 mi North 8.1 mph - N/A   Clear
5:15 PM 32.0 °F 25.6 °F 26.6 °F 80% 30.67 in 10.0 mi NNW 6.9 mph - N/A   Clear
5:35 PM 32.0 °F 25.6 °F 26.6 °F 80% 30.67 in 10.0 mi NW 6.9 mph - N/A   Clear
5:55 PM 32.0 °F 25.6 °F 24.8 °F 75% 30.67 in 10.0 mi NNW 6.9 mph - N/A   Clear
6:15 PM 32.0 °F 26.4 °F 24.8 °F 75% 30.67 in 10.0 mi NW 5.8 mph - N/A   Clear
6:35 PM 32.0 °F 25.6 °F 24.8 °F 75% 30.67 in 10.0 mi NW 6.9 mph - N/A   Clear
6:55 PM 32.0 °F 25.6 °F 24.8 °F 75% 30.68 in 10.0 mi NNW 6.9 mph - N/A   Clear
7:15 PM 32.0 °F 25.6 °F 24.8 °F 75% 30.68 in 10.0 mi NNW 6.9 mph - N/A   Clear
7:35 PM 30.2 °F 23.4 °F 24.8 °F 80% 30.68 in 10.0 mi NNW 6.9 mph - N/A   Clear
7:55 PM 30.2 °F 24.3 °F 24.8 °F 80% 30.69 in 10.0 mi NW 5.8 mph - N/A   Clear
8:15 PM 30.2 °F 25.4 °F 24.8 °F 80% 30.69 in 10.0 mi NNW 4.6 mph - N/A   Clear
8:35 PM 30.2 °F 25.4 °F 23.0 °F 75% 30.69 in 10.0 mi NNW 4.6 mph - N/A   Clear
8:55 PM 30.2 °F 25.4 °F 23.0 °F 75% 30.70 in 10.0 mi NNW 4.6 mph - N/A   Clear
9:15 PM 28.4 °F 24.6 °F 23.0 °F 80% 30.70 in 10.0 mi NNW 3.5 mph - N/A   Clear
9:35 PM 28.4 °F 24.6 °F 23.0 °F 80% 30.70 in 10.0 mi NNW 3.5 mph - N/A   Clear
9:55 PM 28.4 °F - 23.0 °F 80% 30.70 in 10.0 mi Calm Calm - N/A   Clear
10:15 PM 26.6 °F 22.6 °F 23.0 °F 86% 30.70 in 10.0 mi NW 3.5 mph - N/A   Clear
10:35 PM 26.6 °F - 23.0 °F 86% 30.70 in 10.0 mi Calm Calm - N/A   Clear
10:55 PM 28.4 °F - 23.0 °F 80% 30.68 in 10.0 mi Calm Calm - N/A   Clear
11:15 PM 26.6 °F - 23.0 °F 86% 30.68 in 10.0 mi Calm Calm - N/A   Clear
11:35 PM 28.4 °F - 23.0 °F 80% 30.68 in 10.0 mi Calm Calm - N/A   Clear
11:55 PM 23.0 °F - 21.2 °F 93% 30.68 in 10.0 mi Calm Calm - N/A   Clear